ITY1014 LIMC-LFLL

Flight info

Callsign ITY1014
Flight time N/A
Altitude 34000
Route DOGUB6TXAOSTA5W/35R AOSTA DCT ORSUD DCT MOLUS DCT UNKIR DCT GIVRI DCT TINIL
Aircraft A320/M-SDE3FGHIRWY/LB1

Departure

Time N/A
Airport Milan Malpensa International Airport (LIMC)

Arrival

Time 2026-05-07 09:43
Airport Lyon Saint-Exupéry Airport (LFLL)
Time Latitude Longitude Altitude Speed Heading
2026-05-07 09:30 46.11829 5.03329 8047 ft 277 kts 183°
2026-05-07 09:30 46.09899 5.03229 8050 ft 278 kts 182°
2026-05-07 09:31 46.07971 5.03129 8048 ft 277 kts 183°
2026-05-07 09:31 46.06042 5.03029 8045 ft 277 kts 183°
2026-05-07 09:31 46.04112 5.02930 8044 ft 278 kts 182°
2026-05-07 09:31 46.02183 5.02831 8049 ft 277 kts 183°
2026-05-07 09:32 46.00255 5.02732 8041 ft 277 kts 182°
2026-05-07 09:32 45.98325 5.02632 8039 ft 278 kts 182°
2026-05-07 09:32 45.96393 5.02535 8040 ft 278 kts 182°
2026-05-07 09:32 45.94459 5.02524 7996 ft 278 kts 179°
2026-05-07 09:33 45.92528 5.02622 7866 ft 278 kts 178°
2026-05-07 09:33 45.90598 5.02765 7738 ft 277 kts 177°
2026-05-07 09:33 45.88670 5.02918 7610 ft 277 kts 178°
2026-05-07 09:33 45.86746 5.03065 7482 ft 276 kts 177°
2026-05-07 09:34 45.84824 5.03204 7356 ft 276 kts 177°
2026-05-07 09:34 45.82931 5.03334 7231 ft 276 kts 177°
2026-05-07 09:34 45.81014 5.03457 7095 ft 275 kts 177°
2026-05-07 09:34 45.79100 5.03578 6982 ft 275 kts 177°
2026-05-07 09:35 45.77203 5.03698 6597 ft 271 kts 177°
2026-05-07 09:35 45.75318 5.03817 6061 ft 271 kts 177°
2026-05-07 09:35 45.73439 5.03937 5528 ft 269 kts 178°
2026-05-07 09:35 45.71573 5.04053 5017 ft 267 kts 178°
2026-05-07 09:36 45.69721 5.04167 4565 ft 264 kts 178°
2026-05-07 09:36 45.67945 5.04278 4430 ft 247 kts 178°
2026-05-07 09:36 45.66276 5.04383 4132 ft 234 kts 178°
2026-05-07 09:36 45.64652 5.04484 3503 ft 233 kts 178°
2026-05-07 09:37 45.63044 5.04585 3090 ft 229 kts 177°
2026-05-07 09:37 45.61438 5.04684 3020 ft 233 kts 177°
2026-05-07 09:37 45.59809 5.04784 3016 ft 234 kts 177°
2026-05-07 09:37 45.58218 5.05197 3017 ft 233 kts 154°
2026-05-07 09:38 45.57013 5.06678 3016 ft 230 kts 121°
2026-05-07 09:38 45.56344 5.08746 3019 ft 226 kts 107°
2026-05-07 09:38 45.55876 5.10773 3011 ft 209 kts 101°
2026-05-07 09:38 45.56017 5.12689 3041 ft 191 kts 58°
2026-05-07 09:39 45.57000 5.13682 3021 ft 170 kts
2026-05-07 09:39 45.58112 5.13348 3010 ft 163 kts 335°
2026-05-07 09:39 45.59118 5.12605 2991 ft 158 kts 327°
2026-05-07 09:39 45.60030 5.11899 2986 ft 144 kts 332°
2026-05-07 09:40 45.60893 5.11212 3005 ft 141 kts 332°
2026-05-07 09:40 45.61778 5.10621 2918 ft 140 kts 347°
2026-05-07 09:40 45.62746 5.10623 2587 ft 138 kts
2026-05-07 09:40 45.63694 5.10722 2338 ft 136 kts 359°
2026-05-07 09:41 45.64632 5.10636 2142 ft 134 kts 347°
2026-05-07 09:41 45.65553 5.10322 1952 ft 138 kts 349°
2026-05-07 09:41 45.66180 5.10182 1835 ft 138 kts 351°
2026-05-07 09:41 45.67134 5.10012 1644 ft 139 kts 352°
2026-05-07 09:42 45.68400 5.09826 1412 ft 137 kts 354°
2026-05-07 09:42 45.69046 5.09740 1267 ft 138 kts 354°
2026-05-07 09:42 45.70001 5.09618 1068 ft 137 kts 355°
2026-05-07 09:42 45.70955 5.09503 891 ft 137 kts 355°
2026-05-07 09:43 45.71867 5.09384 806 ft 119 kts 357°
2026-05-07 09:43 45.72554 5.09303 783 ft 64 kts 356°
2026-05-07 09:43 45.72746 5.09278 778 ft 20 kts 353°
2026-05-07 09:43 45.72860 5.09178 777 ft 0 kts 324°
2026-05-07 09:44 45.72863 5.09175 777 ft 2 kts 324°
2026-05-07 09:44 45.72930 5.09108 777 ft 19 kts 324°
2026-05-07 09:44 45.72969 5.08967 782 ft 15 kts 268°
2026-05-07 09:45 45.72961 5.08821 786 ft 15 kts 264°
2026-05-07 09:45 45.72947 5.08650 785 ft 20 kts 263°
2026-05-07 09:45 45.72941 5.08476 783 ft 0 kts 270°
2026-05-07 09:45 45.72941 5.08446 783 ft 12 kts 270°
2026-05-07 09:46 45.72934 5.08374 783 ft 8 kts 245°
2026-05-07 09:46 45.72910 5.08282 783 ft 11 kts 263°
2026-05-07 09:46 45.72889 5.08230 783 ft 5 kts 172°
2026-05-07 09:46 45.72879 5.08233 783 ft 2 kts 171°
2026-05-07 09:47 45.72823 5.08340 784 ft 22 kts 125°
2026-05-07 09:47 45.72701 5.08368 786 ft 20 kts 173°
2026-05-07 09:47 45.72549 5.08387 787 ft 24 kts 177°
2026-05-07 09:47 45.72368 5.08403 790 ft 25 kts 180°
2026-05-07 09:48 45.72314 5.08268 790 ft 17 kts 255°
2026-05-07 09:48 45.72284 5.08133 790 ft 0 kts 248°